Location: Bjelajci
(45.0103°N, 16.1758°E)
Time: 19:21:42
(UTC+00:00)

Meteor 1-21 - Pass Details

Date: 14 July 2020
Orbit: 845 x 887 km, 81.2° (Epoch: 05 August)

Event Time Altitude Azimuth Distance (km) Brightness Sun altitude
Rises 02:29:50 0° 349° (N) 3,490 7.9 -8.2°
Reaches altitude 10° 02:32:18 10° 351° (N) 2,552 7.2 -7.9°
Maximum altitude 02:38:08 83° 80° (E) 899 4.5 -7.1°
Drops below altitude 10° 02:43:57 10° 168° (SSE) 2,544 6.4 -6.3°
Sets 02:46:23 0° 169° (S) 3,479 7.1 -6.0°
